Regional Weather Roundup
Issued by NWS

Home | Current Version | Previous Version | Text Only | Print | Product List | Glossary On
Versions: 1 2 3 4 5 6 7 8 9 10 11 12 13 14 15 16 17 18 19 20 21 22 23 24 25 26 27 28 29 30 31 32 33 34 35 36 37 38 39 40 41 42 43 44 45 46 47 48 49 50
000
ASHW40 PHFO 041210
RWRHI

WEATHER ROUNDUP FOR HAWAII
NATIONAL WEATHER SERVICE HONOLULU HI
200 AM HST MON MAY 04 2015

THIS IS AN AUTOMATED REPORT THAT HAS NOT BEEN QUALITY CONTROLLED.

NOTE..."FAIR" INDICATES FEW OR NO CLOUDS BELOW 12,000 FEET WITH NO
SIGNIFICANT WEATHER AND/OR OBSTRUCTIONS TO VISIBILITY.

* - THESE SITES REPORT LIMITED FIELDS

HIZ001>004-041300-
KAUAI-NIIHAU-

CITY           SKY/WX    TMP DP  RH WIND       PRES   REMARKS
LIHUE APT      CLOUDY    75  63  66 E14       30.04F
PORT ALLEN*      N/A     73 N/A N/A E12         N/A
POIPU*           N/A     75 N/A N/A NE9G18      N/A
PRINCEVILLE*     N/A     70 N/A N/A MISG        N/A
KOKOLE POINT*  NOT AVBL
MOLOAA DAIRY*  NOT AVBL
WAIMEA HTS*    NOT AVBL
PUU OPAE*      NOT AVBL
PUU LUA*       NOT AVBL
MAKAHA RIDGE*  NOT AVBL
$$

HIZ005>011-041300-
OAHU-

CITY           SKY/WX    TMP DP  RH WIND       PRES   REMARKS
HONOLULU       PTCLDY    73  63  70 E9        30.01F
KALAELOA       CLEAR     69  60  73 CALM      30.03F
KANEOHE MCB    CLOUDY    75  64  68 E10G17    30.01S
WHEELER FIELD  NOT AVBL
BELLOWS*       NOT AVBL
KAHUKU*        NOT AVBL
WHEELER*       NOT AVBL
WAIANAE HARBOR NOT AVBL
DILLINGHAM*      N/A     68  59  73 MISG        N/A
KAHUKU TRN*      N/A     81  70  69 E9G18       N/A
KAWAILOA*        N/A     68  59  73 E15G23      N/A
KII*             N/A     73  64  73 E16         N/A
MAKUA RANGE*     N/A     75  57  53 E8G14       N/A
OAHU FOREST NW NOT AVBL
SCHOFIELD BRK*   N/A     63  57  82 MISG        N/A
SCHOFIELD S*   NOT AVBL
WAIANAE VLY*   NOT AVBL
KUAOKALA*      NOT AVBL
HONOULIUULI*   NOT AVBL
MOKUOLOE IS*   NOT AVBL
PALEHUA*       NOT AVBL
WAIAWA PHB*    NOT AVBL
$$

HIZ012>013-041300-
MOLOKAI-

CITY           SKY/WX    TMP DP  RH WIND       PRES   REMARKS
MOLOKAI AIRPT  CLOUDY    72  60  66 E9G20     30.02F
KALAUPAPA      NOT AVBL
MAKAPULAPAI*   NOT AVBL
MOLOKAI 1*     NOT AVBL
PUU ALII*      NOT AVBL
$$

HIZ016-041300-
KAHOOLAWE-

CITY           SKY/WX    TMP DP  RH WIND       PRES   REMARKS
KAHOOLAWE*     NOT AVBL
HAKIOAWA*      NOT AVBL
HONOKANAIA*      N/A     75  63  66 NE14G26   30.01F
KANELOA*         N/A     72  64  78 MISG      29.24S
KEALIALALO*    NOT AVBL
LUA MAKIKA*    NOT AVBL
$$

HIZ014>015-041300-
LANAI-

CITY           SKY/WX    TMP DP  RH WIND       PRES   REMARKS
LANAI CITY     MOCLDY    62  59  90 E8        30.06S
LANAI 1*       NOT AVBL
$$

HIZ017>028-041300-
MAUI-

CITY           SKY/WX    TMP DP  RH WIND       PRES   REMARKS
KAHULUI        CLEAR     71  62  73 E6        30.01S
KAPALUA-W MAUI NOT AVBL
HANA AIRPORT   CLOUDY    73  63  68 E5        30.06S
HANA*          NOT AVBL
HALEAKALA SUMM   N/A     45  19  36 E9G28       N/A
MAALAEA BAY*   NOT AVBL
HALEAKALA*     NOT AVBL
KAUPO GAP*     NOT AVBL
KULA 1*          N/A     46  43  87 E3          N/A
$$

HIZ023>026-041300-
BIG ISLAND OF HAWAII COAST AND LOWER SLOPES-

CITY           SKY/WX    TMP DP  RH WIND       PRES   REMARKS
KAILUA KONA    CLEAR     73  59  61 E5        29.97F
HILO           CLOUDY    66  64  93 W8        30.04F
HONOKAA*       NOT AVBL
KAWAIHAE MWT*  NOT AVBL
KAWAIHAE*      NOT AVBL
SOUTH POINT*   NOT AVBL
UPOLU AIRPORT* NOT AVBL
KAMUELA*       MOSUNNY   61  54  77 NE13      30.08S
HAKALAU*         N/A     46  46 100 S5G10       N/A
KALOKO-HONOKO* NOT AVBL
PALI 2*          N/A     72  64  78 N12         N/A
KEALAKOMO*       N/A    N/A N/A N/A NE10G23     N/A
KAUPULEHU*     NOT AVBL
KAPAPALA*        N/A     62  57  83 NW5         N/A
LOWER KAHUKU*  NOT AVBL
PUHE CS*       NOT AVBL
PUHO CS*       NOT AVBL
PTA KEAMUKU*     N/A     54  48  82 CALM        N/A
WAIKOLOA*      NOT AVBL
$$

HIZ027>028-041300-
BIG ISLAND OF HAWAII INTERIOR AND SUMMMITS-

CITY           SKY/WX    TMP DP  RH WIND       PRES   REMARKS
BRADSHAW FIELD CLOUDY    43  39  85 N1        30.27F
MK VISITOR CEN NOT AVBL
MAUNA KEA*       N/A     37 -27   5 S2          N/A
MAUNA LOA*       N/A     45 -27   4 MISG        N/A
MAUNA LOA 1*   NOT AVBL
PTA KIPUKA*      N/A     46  43  87 E3          N/A
PTA RANGE 17*    N/A     52  46  82 E9G17       N/A
PTA WEST*        N/A     72  63  73 SE13G21     N/A
NENE CABIN*    NOT AVBL
AHUMOA*        NOT AVBL
PTA PORTABLE*  NOT AVBL
PUU MALI*        N/A     48  41  76 SW9         N/A
$$

HIC003-041300-
NORTHWEST ISLANDS-

CITY           SKY/WX    TMP DP  RH WIND       PRES   REMARKS
MIDWAY ISLAND  PTCLDY    70  70 100 CALM      30.04F
MIDWAY NOS*    NOT AVBL
FRENCH FRIGATE NOT AVBL
$$

PHZ110>124-180-041300-
BUOY REPORTS

STATION/POSITION TIME  TEMP    WIND        PRES    WAVE   SWELL
                       AIR SEA DIR/SP/G            HT/PER HT/DIR
                 (UTC) (F)     (DEG/KT/KT) (MB)    (FT/S) (FT/D)
BUOY 51001       NOT AVBL
BUOY 51101       1200   74 76  100/ 16/ 17 1017.7F   6/ 9   5/ 90
BUOY 51100       NOT AVBL
BUOY 51002       1200   77 79   90/ 17/ 19 1013.9F   8/ 8   5/ 80
BUOY 51003       1100   77 79   90/ 12/ 16 1015.7F   6/ 7   5
BUOY 51004       1103   76 77   80/ 17/ 19 1014.6    8/ 8   5/ 70
BARBERS PT BUOY  NOT AVBL
WAIMEA BAY BUOY  1200      77                N/A     4/ 8
KAILUA BAY BUOY  1200      77                N/A     7/ 7   2/ 50
LANAI BUOY       NOT AVBL
BARBERS PT 2     1200      77                N/A     4/ 7   2/180
PAUWELA MAUI     1200      76                N/A     8/ 8   2/ 40
HILO             1200      77                N/A     7/ 8   2/ 40
KANEOHE BAY BUOY 1200      76                N/A     6/ 9   2/ 40
HANALEI KAUAI    1200      78                N/A     7/ 9   2/ 20
KAHULUI HARBOR   1200   73 77   50/ 10/ 13 1015.9F
HONOLULU HARBOR  1200   75 78   70/  6/ 10 1016.6S
KILO NALU        NOT AVBL
HILO HARBOR      NOT AVBL
MOKUOLOE         1200      77              1017.0F
NAWILIWILI       1200   75 77   70/ 12/ 15 1016.8F
WHOTS BUOY       NOT AVBL
BUOY 51028       NOT AVBL
$$

......................KEY........................................
  SKY/WX - SKY CONDITIONS/PRESENT WEATHER
  TMP    - TEMPERATURE IN FAHRENHEIT
  DWPT   - DEWPOINT IN FAHRENHEIT
  RH     - RELATIVE HUMIDITY IN PERCENT
  WIND   - DIRECTION AND SPEED /MPH FOR ISLANDS...KTS FOR BUOYS/
  PRES   - MEAN SEA LEVEL PRESSURE IN INCHES OF HG
  VSB    - VISIBILITY IN MILES
  HX     - HEAT INDEX
  WCI    - WIND CHILL INDEX
  VRB    - VARIABLE WIND DIRECTION
  N/A    - NOT AVAILABLE


USA.gov is the U.S. government's official web portal to all federal, state and local government web resources and services.